GEFSMW_prec_meanprec_006.txt.gz
QPF
0.00 0.00 0.00 0.00 0.00 0.00 0.00 0.00 0.01 0.02 0.01 0.01 0.01 0.04 0.07 0.11 0.19 0.14 0.15 0.13 0.13 0.09 0.11 0.09 0.06 0.04 0.04 0.06 0.10 0.16 0.14 0.09 0.05 0.01 0.00 0.00 0.00 0.00 0.00 0.00 0.00 0.00 0.00
0.00 0.00 0.00 0.00 0.00 0.00 0.00 0.00 0.02 0.03 0.02 0.01 0.01 0.02 0.04 0.05 0.07 0.09 0.13 0.15 0.15 0.12 0.12 0.09 0.06 0.05 0.08 0.16 0.14 0.12 0.20 0.19 0.14 0.06 0.01 0.00 0.00 0.00 0.00 0.00 0.00 0.00 0.00
0.00 0.00 0.00 0.00 0.00 0.00 0.00 0.01 0.03 0.03 0.02 0.01 0.01 0.02 0.04 0.07 0.09 0.13 0.15 0.12 0.13 0.13 0.10 0.07 0.07 0.09 0.13 0.15 0.20 0.21 0.21 0.20 0.24 0.16 0.04 0.00 0.00 0.00 0.00 0.00 0.00 0.00 0.00
0.02 0.03 0.03 0.03 0.02 0.01 0.01 0.02 0.04 0.03 0.03 0.01 0.00 0.01 0.01 0.04 0.05 0.07 0.07 0.07 0.11 0.09 0.04 0.09 0.16 0.23 0.29 0.28 0.34 0.29 0.23 0.18 0.17 0.18 0.09 0.04 0.02 0.00 0.00 0.00 0.00 0.00 0.00
0.03 0.06 0.09 0.09 0.10 0.08 0.05 0.06 0.06 0.04 0.02 0.01 0.00 0.00 0.01 0.06 0.05 0.03 0.04 0.07 0.08 0.07 0.06 0.10 0.13 0.16 0.19 0.22 0.27 0.22 0.20 0.18 0.15 0.15 0.15 0.13 0.15 0.05 0.01 0.00 0.00 0.00 0.00
0.03 0.08 0.14 0.17 0.19 0.14 0.09 0.07 0.04 0.02 0.00 0.00 0.00 0.00 0.01 0.03 0.04 0.04 0.04 0.04 0.03 0.03 0.04 0.06 0.14 0.18 0.12 0.16 0.20 0.19 0.22 0.18 0.14 0.15 0.18 0.22 0.29 0.29 0.14 0.07 0.02 0.00 0.00
0.06 0.12 0.20 0.25 0.25 0.17 0.11 0.05 0.01 0.00 0.00 0.00 0.00 0.00 0.00 0.01 0.05 0.11 0.06 0.03 0.02 0.01 0.02 0.03 0.09 0.16 0.14 0.21 0.17 0.06 0.09 0.13 0.14 0.15 0.19 0.23 0.28 0.32 0.29 0.25 0.15 0.06 0.01
0.18 0.20 0.19 0.21 0.22 0.18 0.10 0.04 0.01 0.00 0.00 0.00 0.00 0.01 0.01 0.01 0.02 0.02 0.01 0.00 0.01 0.01 0.01 0.01 0.01 0.04 0.05 0.13 0.19 0.09 0.05 0.05 0.06 0.09 0.13 0.16 0.24 0.31 0.27 0.26 0.21 0.13 0.05
0.35 0.36 0.26 0.19 0.11 0.07 0.04 0.02 0.01 0.00 0.00 0.00 0.00 0.00 0.01 0.01 0.01 0.00 0.00 0.00 0.00 0.00 0.00 0.00 0.00 0.01 0.02 0.05 0.11 0.18 0.18 0.09 0.04 0.05 0.08 0.06 0.04 0.08 0.12 0.19 0.20 0.11 0.05
0.38 0.52 0.54 0.31 0.10 0.04 0.03 0.02 0.00 0.00 0.00 0.00 0.00 0.00 0.00 0.00 0.00 0.00 0.00 0.00 0.00 0.00 0.00 0.00 0.00 0.01 0.03 0.09 0.13 0.09 0.12 0.10 0.07 0.06 0.07 0.07 0.05 0.03 0.03 0.09 0.19 0.15 0.07
0.43 0.59 0.59 0.27 0.12 0.05 0.03 0.01 0.00 0.00 0.00 0.00 0.01 0.00 0.00 0.01 0.00 0.00 0.00 0.00 0.00 0.00 0.01 0.02 0.02 0.03 0.03 0.03 0.01 0.01 0.01 0.02 0.03 0.03 0.04 0.08 0.09 0.08 0.06 0.06 0.14 0.19 0.14
0.09 0.19 0.24 0.15 0.08 0.04 0.02 0.02 0.02 0.02 0.01 0.01 0.02 0.02 0.03 0.02 0.01 0.00 0.00 0.00 0.00 0.00 0.01 0.02 0.03 0.04 0.02 0.01 0.00 0.00 0.00 0.00 0.01 0.01 0.02 0.05 0.09 0.12 0.12 0.12 0.15 0.18 0.19
0.01 0.01 0.04 0.05 0.04 0.02 0.03 0.04 0.06 0.06 0.05 0.04 0.04 0.05 0.05 0.04 0.02 0.01 0.01 0.00 0.01 0.01 0.02 0.01 0.02 0.03 0.04 0.03 0.00 0.00 0.00 0.00 0.00 0.01 0.02 0.04 0.06 0.08 0.12 0.16 0.21 0.22 0.20
0.02 0.01 0.01 0.02 0.01 0.02 0.04 0.08 0.15 0.19 0.17 0.15 0.12 0.11 0.08 0.06 0.05 0.04 0.05 0.03 0.03 0.03 0.02 0.01 0.02 0.06 0.08 0.05 0.02 0.01 0.01 0.00 0.00 0.01 0.01 0.02 0.04 0.08 0.15 0.23 0.25 0.23 0.20
0.02 0.02 0.01 0.01 0.01 0.01 0.03 0.12 0.25 0.32 0.30 0.33 0.30 0.22 0.15 0.11 0.11 0.15 0.19 0.15 0.09 0.08 0.05 0.02 0.02 0.07 0.08 0.07 0.05 0.03 0.02 0.00 0.00 0.00 0.01 0.01 0.02 0.05 0.12 0.22 0.31 0.28 0.23
0.04 0.05 0.04 0.04 0.03 0.03 0.04 0.10 0.21 0.29 0.32 0.37 0.40 0.30 0.25 0.20 0.17 0.21 0.29 0.27 0.16 0.14 0.12 0.08 0.04 0.04 0.08 0.11 0.09 0.07 0.03 0.01 0.00 0.00 0.01 0.01 0.01 0.02 0.06 0.10 0.19 0.25 0.25
0.16 0.16 0.16 0.15 0.13 0.10 0.09 0.11 0.17 0.23 0.29 0.33 0.33 0.25 0.23 0.30 0.32 0.35 0.34 0.25 0.18 0.21 0.23 0.17 0.10 0.06 0.07 0.09 0.11 0.12 0.09 0.03 0.01 0.00 0.01 0.01 0.01 0.02 0.03 0.05 0.10 0.14 0.17
0.26 0.22 0.19 0.17 0.13 0.11 0.11 0.12 0.14 0.16 0.19 0.18 0.15 0.12 0.18 0.27 0.28 0.27 0.24 0.20 0.19 0.25 0.31 0.24 0.18 0.16 0.12 0.11 0.18 0.14 0.07 0.04 0.02 0.01 0.01 0.00 0.00 0.01 0.03 0.04 0.06 0.09 0.12
0.12 0.08 0.05 0.04 0.03 0.02 0.03 0.03 0.02 0.02 0.02 0.02 0.02 0.04 0.05 0.05 0.05 0.05 0.06 0.10 0.14 0.18 0.16 0.18 0.29 0.26 0.21 0.24 0.22 0.12 0.04 0.02 0.02 0.03 0.02 0.01 0.00 0.01 0.02 0.05 0.05 0.04 0.08
0.01 0.00 0.00 0.00 0.00 0.00 0.00 0.00 0.00 0.00 0.00 0.00 0.00 0.00 0.00 0.00 0.00 0.00 0.01 0.03 0.06 0.08 0.08 0.11 0.19 0.25 0.25 0.22 0.11 0.08 0.09 0.06 0.08 0.07 0.03 0.01 0.00 0.01 0.03 0.06 0.07 0.03 0.04
0.00 0.00 0.00 0.00 0.00 0.00 0.00 0.00 0.00 0.00 0.00 0.00 0.00 0.00 0.00 0.00 0.00 0.00 0.00 0.00 0.00 0.01 0.03 0.06 0.06 0.08 0.09 0.08 0.06 0.09 0.09 0.08 0.09 0.06 0.03 0.01 0.02 0.02 0.04 0.06 0.05 0.03 0.04
0.00 0.00 0.00 0.00 0.00 0.00 0.00 0.00 0.00 0.00 0.00 0.00 0.00 0.00 0.00 0.00 0.00 0.00 0.00 0.00 0.00 0.00 0.00 0.01 0.00 0.01 0.01 0.01 0.02 0.02 0.02 0.03 0.03 0.02 0.03 0.04 0.05 0.05 0.06 0.05 0.04 0.03 0.02
0.00 0.00 0.00 0.00 0.00 0.00 0.00 0.00 0.00 0.00 0.00 0.00 0.00 0.00 0.00 0.00 0.00 0.00 0.00 0.00 0.00 0.00 0.00 0.00 0.00 0.01 0.02 0.01 0.01 0.01 0.01 0.01 0.01 0.02 0.06 0.10 0.12 0.09 0.06 0.04 0.03 0.02 0.01
0.00 0.00 0.00 0.00 0.00 0.00 0.00 0.00 0.00 0.00 0.00 0.00 0.00 0.00 0.00 0.00 0.00 0.00 0.00 0.00 0.00 0.00 0.00 0.00 0.01 0.04 0.04 0.03 0.02 0.01 0.02 0.02 0.01 0.02 0.07 0.12 0.15 0.09 0.06 0.04 0.02 0.01 0.01
0.00 0.00 0.00 0.00 0.00 0.00 0.00 0.00 0.00 0.00 0.00 0.00 0.00 0.00 0.00 0.00 0.00 0.00 0.00 0.00 0.00 0.00 0.00 0.00 0.00 0.01 0.01 0.01 0.02 0.03 0.04 0.03 0.01 0.04 0.11 0.18 0.16 0.10 0.06 0.03 0.02 0.01 0.01
0.00 0.00 0.00 0.00 0.00 0.00 0.00 0.00 0.00 0.00 0.00 0.00 0.00 0.00 0.00 0.00 0.00 0.00 0.00 0.00 0.00 0.00 0.00 0.01 0.01 0.01 0.01 0.02 0.04 0.07 0.07 0.05 0.06 0.09 0.17 0.20 0.20 0.16 0.10 0.04 0.02 0.01 0.01

GEFSMW_prec_meanprec_012.txt.gz
QPF
0.01 0.01 0.00 0.00 0.00 0.00 0.00 0.00 0.00 0.01 0.01 0.01 0.00 0.01 0.01 0.02 0.04 0.08 0.10 0.12 0.15 0.12 0.07 0.09 0.10 0.11 0.13 0.12 0.11 0.07 0.05 0.04 0.03 0.01 0.00 0.00 0.00 0.00 0.00 0.00 0.00 0.00 0.00
0.01 0.00 0.00 0.00 0.00 0.00 0.00 0.00 0.01 0.03 0.04 0.05 0.05 0.05 0.04 0.03 0.05 0.06 0.07 0.09 0.11 0.11 0.10 0.11 0.11 0.09 0.08 0.09 0.13 0.14 0.10 0.07 0.07 0.06 0.02 0.00 0.00 0.00 0.00 0.00 0.00 0.00 0.00
0.01 0.00 0.01 0.01 0.01 0.01 0.02 0.04 0.09 0.14 0.18 0.20 0.19 0.13 0.08 0.06 0.05 0.05 0.08 0.10 0.11 0.13 0.12 0.11 0.10 0.07 0.06 0.08 0.14 0.20 0.22 0.18 0.15 0.15 0.09 0.04 0.01 0.00 0.00 0.00 0.00 0.00 0.00
0.01 0.01 0.01 0.01 0.02 0.05 0.12 0.22 0.35 0.43 0.42 0.37 0.27 0.19 0.13 0.10 0.09 0.09 0.08 0.07 0.06 0.06 0.05 0.04 0.03 0.03 0.05 0.10 0.16 0.23 0.29 0.30 0.26 0.24 0.18 0.11 0.05 0.03 0.01 0.00 0.00 0.00 0.00
0.01 0.03 0.05 0.06 0.12 0.23 0.41 0.59 0.69 0.70 0.59 0.41 0.27 0.21 0.14 0.11 0.10 0.09 0.09 0.07 0.06 0.04 0.02 0.02 0.02 0.02 0.03 0.06 0.08 0.11 0.18 0.26 0.31 0.30 0.28 0.19 0.11 0.05 0.02 0.01 0.00 0.00 0.00
0.04 0.09 0.15 0.22 0.33 0.47 0.64 0.77 0.81 0.76 0.57 0.36 0.23 0.17 0.13 0.10 0.08 0.08 0.09 0.07 0.05 0.03 0.02 0.01 0.02 0.02 0.01 0.01 0.02 0.03 0.07 0.16 0.24 0.28 0.25 0.19 0.17 0.13 0.09 0.05 0.02 0.01 0.00
0.10 0.19 0.27 0.35 0.44 0.59 0.72 0.75 0.70 0.60 0.43 0.28 0.19 0.14 0.11 0.08 0.06 0.05 0.04 0.03 0.02 0.02 0.01 0.01 0.01 0.01 0.00 0.00 0.00 0.01 0.03 0.10 0.15 0.19 0.19 0.18 0.15 0.14 0.14 0.12 0.10 0.07 0.03
0.18 0.27 0.34 0.38 0.43 0.54 0.67 0.70 0.60 0.49 0.34 0.22 0.16 0.12 0.09 0.05 0.02 0.01 0.01 0.01 0.01 0.00 0.00 0.00 0.00 0.00 0.00 0.00 0.00 0.01 0.01 0.02 0.07 0.12 0.15 0.15 0.15 0.13 0.12 0.11 0.11 0.10 0.08
0.18 0.28 0.37 0.41 0.39 0.40 0.46 0.46 0.37 0.32 0.26 0.20 0.17 0.13 0.07 0.04 0.02 0.01 0.00 0.00 0.00 0.00 0.00 0.00 0.00 0.00 0.00 0.00 0.00 0.00 0.00 0.00 0.02 0.06 0.09 0.11 0.13 0.13 0.11 0.10 0.09 0.08 0.07
0.14 0.21 0.33 0.45 0.39 0.28 0.25 0.24 0.22 0.21 0.20 0.18 0.16 0.13 0.07 0.05 0.03 0.02 0.01 0.00 0.00 0.00 0.00 0.00 0.00 0.00 0.00 0.00 0.00 0.00 0.00 0.01 0.04 0.06 0.06 0.06 0.08 0.08 0.08 0.08 0.07 0.06 0.05
0.08 0.11 0.18 0.32 0.30 0.21 0.18 0.18 0.18 0.21 0.21 0.17 0.16 0.12 0.08 0.06 0.05 0.03 0.02 0.01 0.01 0.00 0.00 0.00 0.00 0.00 0.00 0.00 0.00 0.00 0.00 0.01 0.02 0.03 0.03 0.04 0.05 0.04 0.04 0.04 0.04 0.04 0.04
0.02 0.04 0.05 0.08 0.09 0.10 0.11 0.15 0.20 0.22 0.17 0.13 0.12 0.10 0.07 0.05 0.04 0.03 0.03 0.02 0.01 0.01 0.01 0.00 0.00 0.00 0.00 0.01 0.01 0.00 0.00 0.00 0.00 0.00 0.00 0.01 0.02 0.02 0.02 0.02 0.02 0.02 0.03
0.02 0.02 0.02 0.02 0.02 0.03 0.05 0.12 0.23 0.25 0.21 0.16 0.11 0.09 0.07 0.05 0.04 0.03 0.03 0.03 0.03 0.03 0.03 0.02 0.01 0.01 0.01 0.01 0.01 0.00 0.00 0.00 0.00 0.00 0.00 0.00 0.01 0.01 0.02 0.03 0.03 0.03 0.04
0.03 0.02 0.02 0.02 0.02 0.03 0.04 0.10 0.23 0.30 0.29 0.23 0.16 0.11 0.09 0.06 0.05 0.05 0.05 0.05 0.05 0.06 0.06 0.04 0.03 0.03 0.02 0.02 0.02 0.01 0.00 0.00 0.00 0.00 0.00 0.00 0.00 0.01 0.02 0.03 0.05 0.06 0.07
0.03 0.04 0.04 0.04 0.04 0.05 0.06 0.08 0.18 0.25 0.24 0.20 0.16 0.12 0.10 0.07 0.06 0.06 0.06 0.06 0.06 0.08 0.09 0.09 0.07 0.06 0.04 0.04 0.03 0.02 0.01 0.00 0.00 0.00 0.00 0.00 0.00 0.00 0.01 0.03 0.05 0.07 0.09
0.04 0.07 0.07 0.06 0.04 0.04 0.05 0.07 0.12 0.17 0.17 0.16 0.12 0.09 0.08 0.07 0.07 0.07 0.07 0.09 0.09 0.09 0.09 0.10 0.08 0.05 0.04 0.04 0.04 0.03 0.01 0.01 0.00 0.00 0.00 0.00 0.00 0.01 0.01 0.01 0.02 0.04 0.07
0.03 0.05 0.05 0.04 0.03 0.03 0.04 0.04 0.06 0.07 0.07 0.07 0.06 0.06 0.06 0.06 0.05 0.05 0.06 0.07 0.07 0.06 0.06 0.07 0.07 0.06 0.05 0.05 0.03 0.04 0.05 0.02 0.01 0.00 0.00 0.00 0.00 0.00 0.00 0.01 0.03 0.02 0.03
0.01 0.01 0.01 0.01 0.01 0.01 0.01 0.01 0.01 0.01 0.01 0.01 0.01 0.01 0.01 0.02 0.02 0.02 0.02 0.02 0.01 0.02 0.03 0.04 0.06 0.07 0.06 0.07 0.03 0.05 0.06 0.03 0.02 0.02 0.01 0.00 0.00 0.00 0.00 0.00 0.00 0.00 0.01
0.00 0.00 0.00 0.00 0.00 0.00 0.00 0.00 0.00 0.00 0.00 0.00 0.00 0.00 0.00 0.00 0.00 0.00 0.00 0.00 0.00 0.00 0.01 0.02 0.04 0.05 0.05 0.06 0.06 0.07 0.06 0.04 0.04 0.03 0.02 0.02 0.01 0.00 0.00 0.00 0.00 0.00 0.00
0.00 0.00 0.00 0.00 0.00 0.00 0.00 0.00 0.00 0.00 0.00 0.00 0.00 0.00 0.00 0.00 0.00 0.00 0.00 0.00 0.00 0.00 0.00 0.00 0.01 0.02 0.03 0.03 0.04 0.07 0.07 0.07 0.08 0.05 0.04 0.04 0.02 0.01 0.00 0.00 0.00 0.00 0.01
0.00 0.00 0.00 0.00 0.00 0.00 0.00 0.00 0.00 0.00 0.00 0.00 0.00 0.00 0.00 0.00 0.00 0.00 0.00 0.00 0.00 0.00 0.00 0.00 0.00 0.00 0.00 0.01 0.02 0.04 0.04 0.03 0.03 0.02 0.02 0.02 0.02 0.01 0.01 0.01 0.01 0.02 0.02
0.00 0.00 0.00 0.00 0.00 0.00 0.00 0.00 0.00 0.00 0.00 0.00 0.00 0.00 0.00 0.00 0.00 0.00 0.00 0.00 0.00 0.00 0.00 0.00 0.00 0.00 0.00 0.00 0.00 0.00 0.01 0.00 0.01 0.01 0.01 0.01 0.01 0.01 0.02 0.02 0.02 0.03 0.03
0.00 0.00 0.00 0.00 0.00 0.00 0.00 0.00 0.00 0.00 0.00 0.00 0.00 0.00 0.00 0.00 0.00 0.00 0.00 0.00 0.00 0.00 0.00 0.00 0.00 0.00 0.00 0.00 0.00 0.00 0.00 0.01 0.01 0.01 0.01 0.01 0.01 0.01 0.01 0.01 0.02 0.03 0.04
0.00 0.00 0.00 0.00 0.00 0.00 0.00 0.00 0.00 0.00 0.00 0.00 0.00 0.00 0.00 0.00 0.00 0.00 0.00 0.00 0.00 0.00 0.00 0.00 0.00 0.00 0.00 0.00 0.00 0.00 0.00 0.01 0.01 0.01 0.01 0.01 0.01 0.01 0.02 0.02 0.02 0.03 0.05
0.00 0.00 0.00 0.00 0.00 0.00 0.00 0.00 0.00 0.00 0.00 0.00 0.00 0.00 0.00 0.00 0.00 0.00 0.00 0.00 0.00 0.00 0.00 0.00 0.00 0.00 0.00 0.00 0.01 0.00 0.01 0.01 0.02 0.01 0.01 0.02 0.02 0.02 0.02 0.03 0.03 0.04 0.04
0.00 0.00 0.00 0.00 0.00 0.00 0.00 0.00 0.00 0.00 0.00 0.00 0.00 0.00 0.00 0.00 0.00 0.00 0.00 0.00 0.00 0.00 0.00 0.00 0.00 0.00 0.00 0.01 0.01 0.02 0.04 0.05 0.04 0.03 0.04 0.06 0.05 0.05 0.05 0.05 0.05 0.05 0.05

GEFSMW_prec_meanprec_018.txt.gz
QPF
0.03 0.05 0.07 0.07 0.05 0.02 0.00 0.00 0.00 0.01 0.02 0.05 0.07 0.06 0.06 0.05 0.06 0.08 0.12 0.22 0.26 0.28 0.29 0.28 0.25 0.16 0.12 0.10 0.09 0.09 0.05 0.03 0.01 0.00 0.01 0.00 0.00 0.00 0.00 0.00 0.00 0.00 0.00
0.01 0.02 0.04 0.06 0.06 0.03 0.01 0.00 0.01 0.04 0.06 0.11 0.18 0.19 0.17 0.12 0.10 0.11 0.13 0.16 0.18 0.19 0.20 0.27 0.30 0.25 0.21 0.17 0.11 0.10 0.09 0.06 0.01 0.01 0.02 0.01 0.01 0.00 0.00 0.00 0.00 0.00 0.00
0.01 0.01 0.02 0.03 0.04 0.03 0.01 0.00 0.02 0.10 0.18 0.23 0.30 0.33 0.28 0.21 0.16 0.13 0.15 0.16 0.17 0.16 0.15 0.18 0.20 0.18 0.15 0.14 0.12 0.09 0.11 0.10 0.05 0.02 0.04 0.06 0.07 0.04 0.01 0.00 0.00 0.00 0.00
0.00 0.01 0.01 0.01 0.02 0.01 0.01 0.03 0.09 0.24 0.40 0.44 0.42 0.34 0.25 0.21 0.19 0.19 0.18 0.16 0.14 0.13 0.12 0.12 0.10 0.08 0.07 0.08 0.07 0.03 0.06 0.11 0.09 0.06 0.04 0.06 0.07 0.07 0.07 0.02 0.00 0.00 0.00
0.01 0.01 0.01 0.01 0.01 0.02 0.04 0.10 0.25 0.45 0.61 0.63 0.52 0.40 0.29 0.23 0.21 0.19 0.19 0.16 0.13 0.12 0.11 0.09 0.07 0.04 0.04 0.05 0.04 0.02 0.03 0.05 0.09 0.08 0.08 0.09 0.10 0.08 0.07 0.07 0.03 0.01 0.00
0.01 0.02 0.04 0.05 0.07 0.09 0.12 0.21 0.33 0.52 0.64 0.71 0.66 0.57 0.47 0.35 0.25 0.20 0.17 0.13 0.10 0.09 0.09 0.07 0.06 0.05 0.04 0.02 0.02 0.02 0.02 0.02 0.03 0.05 0.07 0.09 0.10 0.11 0.08 0.07 0.05 0.03 0.01
0.02 0.04 0.06 0.07 0.09 0.13 0.19 0.24 0.32 0.45 0.61 0.68 0.68 0.64 0.56 0.43 0.31 0.24 0.18 0.12 0.09 0.07 0.08 0.06 0.04 0.03 0.02 0.01 0.00 0.00 0.01 0.01 0.01 0.02 0.04 0.07 0.09 0.11 0.10 0.08 0.08 0.05 0.02
0.04 0.04 0.05 0.06 0.08 0.12 0.17 0.21 0.30 0.40 0.48 0.51 0.51 0.48 0.47 0.41 0.32 0.23 0.17 0.12 0.09 0.07 0.05 0.04 0.02 0.01 0.00 0.00 0.00 0.00 0.00 0.00 0.01 0.01 0.03 0.05 0.08 0.10 0.09 0.09 0.09 0.08 0.05
0.03 0.03 0.04 0.05 0.08 0.11 0.19 0.26 0.31 0.33 0.35 0.37 0.39 0.41 0.39 0.34 0.26 0.18 0.12 0.09 0.06 0.03 0.02 0.01 0.00 0.00 0.00 0.00 0.00 0.00 0.00 0.00 0.01 0.01 0.02 0.03 0.06 0.07 0.08 0.08 0.08 0.08 0.07
0.03 0.02 0.05 0.07 0.10 0.11 0.13 0.16 0.20 0.25 0.29 0.33 0.36 0.35 0.30 0.24 0.18 0.14 0.10 0.07 0.04 0.02 0.01 0.00 0.00 0.00 0.00 0.00 0.00 0.00 0.00 0.00 0.01 0.01 0.02 0.04 0.06 0.08 0.09 0.10 0.10 0.09 0.06
0.07 0.05 0.07 0.10 0.14 0.15 0.12 0.12 0.14 0.17 0.23 0.26 0.29 0.26 0.21 0.17 0.14 0.12 0.09 0.06 0.03 0.02 0.01 0.00 0.00 0.00 0.00 0.00 0.00 0.00 0.00 0.00 0.00 0.00 0.01 0.03 0.06 0.10 0.12 0.12 0.11 0.09 0.08
0.10 0.07 0.09 0.15 0.17 0.15 0.12 0.12 0.15 0.19 0.21 0.21 0.21 0.18 0.16 0.13 0.12 0.10 0.07 0.04 0.02 0.01 0.01 0.00 0.00 0.00 0.00 0.00 0.00 0.01 0.00 0.00 0.01 0.00 0.00 0.01 0.03 0.04 0.06 0.08 0.08 0.09 0.09
0.09 0.08 0.09 0.15 0.15 0.13 0.12 0.12 0.14 0.19 0.20 0.17 0.17 0.16 0.15 0.14 0.14 0.09 0.04 0.02 0.01 0.01 0.01 0.01 0.01 0.01 0.01 0.01 0.01 0.01 0.01 0.00 0.00 0.00 0.00 0.01 0.01 0.02 0.04 0.05 0.06 0.07 0.07
0.09 0.09 0.10 0.11 0.12 0.12 0.11 0.12 0.13 0.17 0.19 0.18 0.18 0.15 0.14 0.12 0.09 0.05 0.03 0.02 0.02 0.02 0.01 0.01 0.01 0.02 0.03 0.04 0.04 0.03 0.02 0.01 0.00 0.00 0.00 0.00 0.01 0.02 0.04 0.05 0.07 0.09 0.10
0.10 0.09 0.08 0.09 0.09 0.10 0.12 0.13 0.14 0.16 0.17 0.16 0.14 0.10 0.08 0.06 0.05 0.04 0.03 0.02 0.03 0.04 0.03 0.03 0.03 0.03 0.05 0.07 0.08 0.06 0.04 0.03 0.01 0.00 0.00 0.00 0.01 0.01 0.03 0.03 0.07 0.10 0.11
0.05 0.04 0.03 0.03 0.03 0.04 0.05 0.07 0.09 0.11 0.13 0.14 0.11 0.09 0.07 0.06 0.05 0.04 0.03 0.03 0.03 0.03 0.03 0.02 0.03 0.03 0.04 0.07 0.07 0.06 0.06 0.06 0.04 0.02 0.00 0.00 0.00 0.00 0.01 0.01 0.03 0.06 0.08
0.01 0.00 0.00 0.00 0.00 0.01 0.01 0.01 0.01 0.02 0.03 0.04 0.04 0.04 0.04 0.03 0.03 0.02 0.02 0.02 0.02 0.02 0.01 0.01 0.01 0.01 0.03 0.04 0.02 0.02 0.07 0.11 0.08 0.05 0.02 0.00 0.00 0.00 0.00 0.00 0.01 0.01 0.01
0.00 0.00 0.00 0.00 0.00 0.00 0.00 0.00 0.00 0.00 0.00 0.00 0.00 0.01 0.01 0.00 0.00 0.00 0.00 0.00 0.00 0.00 0.00 0.00 0.00 0.00 0.01 0.02 0.01 0.02 0.08 0.16 0.17 0.12 0.05 0.02 0.01 0.01 0.01 0.00 0.01 0.01 0.01
0.00 0.00 0.00 0.00 0.00 0.00 0.00 0.00 0.00 0.00 0.00 0.00 0.00 0.00 0.00 0.00 0.00 0.00 0.00 0.00 0.00 0.00 0.00 0.00 0.00 0.00 0.00 0.00 0.01 0.02 0.09 0.15 0.17 0.14 0.10 0.08 0.05 0.05 0.02 0.01 0.02 0.01 0.01
0.00 0.00 0.00 0.00 0.00 0.00 0.00 0.00 0.00 0.00 0.00 0.00 0.00 0.00 0.00 0.00 0.00 0.00 0.00 0.00 0.00 0.00 0.00 0.00 0.00 0.00 0.00 0.00 0.00 0.02 0.04 0.07 0.08 0.08 0.09 0.14 0.12 0.10 0.06 0.02 0.03 0.05 0.03
0.00 0.00 0.00 0.00 0.00 0.00 0.00 0.00 0.00 0.00 0.00 0.00 0.00 0.00 0.00 0.00 0.00 0.00 0.00 0.00 0.00 0.00 0.00 0.00 0.00 0.00 0.00 0.00 0.00 0.01 0.02 0.03 0.05 0.05 0.06 0.06 0.09 0.08 0.07 0.03 0.04 0.06 0.03
0.00 0.00 0.00 0.00 0.00 0.00 0.00 0.00 0.00 0.00 0.00 0.00 0.00 0.00 0.00 0.00 0.00 0.00 0.00 0.00 0.00 0.00 0.00 0.00 0.00 0.00 0.00 0.00 0.00 0.00 0.00 0.01 0.02 0.02 0.02 0.02 0.03 0.04 0.04 0.03 0.04 0.03 0.02
0.00 0.00 0.00 0.00 0.00 0.00 0.00 0.00 0.00 0.00 0.00 0.00 0.00 0.00 0.00 0.00 0.00 0.00 0.00 0.00 0.00 0.00 0.00 0.00 0.00 0.00 0.00 0.00 0.00 0.00 0.00 0.00 0.00 0.00 0.00 0.00 0.01 0.01 0.03 0.03 0.03 0.03 0.03
0.00 0.00 0.00 0.00 0.00 0.00 0.00 0.00 0.00 0.00 0.00 0.00 0.00 0.00 0.00 0.00 0.00 0.00 0.00 0.00 0.00 0.00 0.00 0.00 0.00 0.00 0.00 0.00 0.00 0.01 0.01 0.01 0.01 0.01 0.01 0.01 0.01 0.02 0.03 0.03 0.03 0.04 0.04
0.00 0.00 0.00 0.00 0.00 0.00 0.00 0.00 0.00 0.00 0.00 0.00 0.00 0.00 0.00 0.00 0.00 0.00 0.00 0.00 0.00 0.00 0.00 0.00 0.00 0.00 0.00 0.00 0.00 0.00 0.01 0.01 0.01 0.01 0.03 0.03 0.03 0.03 0.03 0.03 0.03 0.03 0.04
0.00 0.00 0.00 0.00 0.00 0.00 0.00 0.00 0.00 0.00 0.00 0.00 0.00 0.00 0.00 0.00 0.00 0.00 0.00 0.00 0.00 0.00 0.00 0.00 0.00 0.00 0.00 0.00 0.00 0.00 0.00 0.01 0.02 0.04 0.07 0.07 0.07 0.07 0.06 0.05 0.05 0.05 0.06

GEFSMW_prec_meanprec_024.txt.gz
QPF
0.00 0.00 0.01 0.03 0.04 0.03 0.02 0.02 0.01 0.01 0.01 0.03 0.03 0.04 0.05 0.06 0.06 0.05 0.04 0.05 0.03 0.03 0.04 0.04 0.03 0.03 0.03 0.01 0.02 0.08 0.10 0.08 0.02 0.02 0.03 0.01 0.00 0.00 0.00 0.00 0.00 0.00 0.00
0.00 0.00 0.00 0.00 0.01 0.01 0.01 0.01 0.01 0.02 0.03 0.03 0.02 0.04 0.09 0.12 0.13 0.11 0.09 0.07 0.04 0.03 0.05 0.08 0.11 0.10 0.09 0.07 0.07 0.15 0.18 0.14 0.06 0.08 0.13 0.10 0.07 0.02 0.00 0.00 0.00 0.00 0.00
0.00 0.00 0.00 0.00 0.00 0.01 0.01 0.02 0.02 0.04 0.07 0.11 0.18 0.24 0.28 0.23 0.16 0.11 0.09 0.07 0.06 0.06 0.09 0.14 0.17 0.13 0.14 0.13 0.14 0.17 0.20 0.15 0.08 0.07 0.14 0.15 0.15 0.13 0.03 0.00 0.00 0.00 0.00
0.00 0.00 0.00 0.01 0.00 0.00 0.00 0.01 0.02 0.05 0.11 0.26 0.47 0.60 0.53 0.36 0.20 0.13 0.11 0.08 0.08 0.09 0.12 0.13 0.15 0.16 0.16 0.17 0.14 0.10 0.15 0.16 0.09 0.09 0.10 0.09 0.12 0.15 0.13 0.06 0.01 0.00 0.00
0.00 0.00 0.00 0.01 0.01 0.01 0.01 0.01 0.02 0.07 0.15 0.33 0.58 0.76 0.82 0.71 0.51 0.35 0.22 0.16 0.14 0.15 0.15 0.16 0.17 0.16 0.17 0.17 0.14 0.11 0.12 0.12 0.09 0.10 0.10 0.09 0.09 0.07 0.14 0.16 0.08 0.02 0.00
0.00 0.00 0.00 0.01 0.02 0.01 0.02 0.02 0.04 0.08 0.14 0.26 0.43 0.60 0.75 0.80 0.72 0.57 0.42 0.29 0.22 0.20 0.21 0.21 0.20 0.19 0.18 0.17 0.14 0.09 0.08 0.07 0.07 0.06 0.05 0.06 0.06 0.07 0.12 0.15 0.15 0.09 0.02
0.00 0.00 0.01 0.01 0.02 0.02 0.02 0.03 0.05 0.08 0.12 0.19 0.27 0.38 0.46 0.55 0.56 0.51 0.40 0.31 0.25 0.24 0.24 0.22 0.20 0.16 0.14 0.12 0.08 0.07 0.06 0.05 0.06 0.05 0.06 0.06 0.06 0.08 0.09 0.10 0.13 0.13 0.06
0.02 0.03 0.03 0.03 0.03 0.03 0.04 0.05 0.06 0.06 0.09 0.11 0.16 0.21 0.24 0.30 0.35 0.34 0.28 0.22 0.19 0.18 0.17 0.17 0.14 0.10 0.07 0.06 0.04 0.04 0.04 0.03 0.03 0.03 0.04 0.04 0.04 0.06 0.06 0.07 0.10 0.13 0.13
0.07 0.06 0.06 0.05 0.04 0.05 0.06 0.06 0.06 0.06 0.07 0.08 0.09 0.11 0.13 0.16 0.19 0.20 0.18 0.17 0.17 0.17 0.16 0.13 0.09 0.06 0.04 0.03 0.03 0.03 0.02 0.01 0.01 0.01 0.02 0.03 0.03 0.04 0.05 0.07 0.08 0.11 0.12
0.15 0.13 0.10 0.09 0.07 0.06 0.06 0.06 0.07 0.07 0.07 0.06 0.06 0.07 0.09 0.11 0.14 0.15 0.15 0.16 0.16 0.16 0.15 0.10 0.06 0.04 0.02 0.02 0.01 0.01 0.01 0.01 0.01 0.01 0.02 0.02 0.03 0.04 0.06 0.08 0.10 0.13 0.13
0.28 0.23 0.17 0.15 0.14 0.10 0.08 0.09 0.09 0.07 0.06 0.06 0.06 0.07 0.07 0.08 0.09 0.09 0.10 0.11 0.12 0.12 0.10 0.06 0.05 0.04 0.02 0.01 0.01 0.01 0.01 0.00 0.01 0.01 0.01 0.01 0.02 0.05 0.08 0.11 0.13 0.16 0.16
0.35 0.28 0.27 0.27 0.26 0.21 0.19 0.21 0.20 0.15 0.12 0.11 0.10 0.08 0.08 0.09 0.11 0.11 0.11 0.11 0.10 0.09 0.06 0.05 0.04 0.03 0.02 0.01 0.01 0.01 0.00 0.01 0.01 0.00 0.00 0.01 0.02 0.04 0.07 0.10 0.12 0.15 0.19
0.32 0.27 0.30 0.30 0.28 0.28 0.28 0.28 0.30 0.24 0.19 0.15 0.12 0.10 0.11 0.12 0.12 0.12 0.13 0.11 0.11 0.10 0.06 0.07 0.06 0.03 0.02 0.01 0.01 0.00 0.00 0.00 0.00 0.00 0.00 0.01 0.01 0.03 0.05 0.07 0.09 0.12 0.17
0.24 0.20 0.16 0.16 0.17 0.19 0.21 0.21 0.24 0.26 0.24 0.22 0.20 0.18 0.16 0.14 0.14 0.14 0.13 0.12 0.11 0.09 0.06 0.08 0.08 0.06 0.05 0.06 0.05 0.03 0.02 0.01 0.01 0.01 0.00 0.00 0.00 0.02 0.04 0.07 0.10 0.12 0.14
0.08 0.06 0.05 0.04 0.06 0.08 0.10 0.10 0.12 0.14 0.17 0.18 0.15 0.15 0.14 0.13 0.13 0.13 0.11 0.11 0.10 0.08 0.07 0.08 0.09 0.10 0.12 0.14 0.13 0.07 0.04 0.03 0.02 0.01 0.01 0.01 0.01 0.01 0.02 0.03 0.06 0.09 0.13
0.03 0.01 0.01 0.00 0.01 0.01 0.01 0.02 0.03 0.04 0.05 0.05 0.05 0.04 0.05 0.07 0.07 0.06 0.05 0.05 0.05 0.05 0.06 0.07 0.09 0.12 0.12 0.17 0.14 0.07 0.04 0.03 0.03 0.03 0.02 0.02 0.02 0.01 0.01 0.00 0.01 0.03 0.07
0.01 0.00 0.00 0.00 0.00 0.00 0.00 0.00 0.00 0.00 0.00 0.01 0.01 0.01 0.01 0.01 0.01 0.01 0.01 0.02 0.02 0.02 0.02 0.02 0.03 0.06 0.07 0.06 0.03 0.02 0.02 0.04 0.04 0.05 0.06 0.05 0.04 0.02 0.01 0.02 0.01 0.02 0.01
0.00 0.00 0.00 0.00 0.00 0.00 0.00 0.00 0.00 0.00 0.00 0.00 0.00 0.00 0.00 0.01 0.01 0.01 0.01 0.01 0.01 0.00 0.00 0.00 0.00 0.01 0.01 0.01 0.00 0.00 0.02 0.06 0.06 0.05 0.05 0.07 0.07 0.07 0.07 0.05 0.05 0.05 0.04
0.00 0.00 0.00 0.00 0.00 0.00 0.00 0.00 0.00 0.00 0.00 0.00 0.00 0.00 0.00 0.00 0.00 0.00 0.00 0.00 0.00 0.00 0.00 0.00 0.00 0.00 0.00 0.00 0.00 0.01 0.04 0.07 0.08 0.06 0.07 0.10 0.14 0.22 0.16 0.08 0.08 0.10 0.09
0.00 0.00 0.00 0.00 0.00 0.00 0.00 0.00 0.00 0.00 0.00 0.00 0.00 0.00 0.00 0.00 0.01 0.01 0.00 0.00 0.00 0.00 0.00 0.00 0.00 0.00 0.00 0.00 0.00 0.01 0.04 0.07 0.10 0.12 0.14 0.18 0.14 0.19 0.13 0.06 0.10 0.16 0.15
0.00 0.00 0.00 0.00 0.00 0.00 0.00 0.00 0.00 0.00 0.00 0.00 0.00 0.00 0.00 0.00 0.01 0.02 0.01 0.00 0.00 0.00 0.00 0.00 0.00 0.00 0.00 0.00 0.00 0.00 0.03 0.05 0.10 0.14 0.16 0.12 0.10 0.06 0.05 0.05 0.08 0.15 0.11
0.00 0.00 0.00 0.00 0.00 0.00 0.00 0.00 0.00 0.00 0.00 0.00 0.00 0.00 0.00 0.01 0.01 0.02 0.01 0.00 0.00 0.01 0.01 0.01 0.01 0.01 0.01 0.00 0.00 0.00 0.00 0.02 0.05 0.08 0.09 0.08 0.06 0.03 0.03 0.03 0.06 0.09 0.05
0.00 0.00 0.00 0.00 0.00 0.00 0.00 0.00 0.00 0.00 0.00 0.00 0.01 0.00 0.00 0.01 0.00 0.01 0.00 0.01 0.01 0.01 0.01 0.01 0.01 0.01 0.02 0.01 0.00 0.01 0.00 0.00 0.01 0.01 0.01 0.01 0.01 0.01 0.02 0.03 0.04 0.04 0.05
0.00 0.00 0.00 0.00 0.00 0.00 0.00 0.00 0.00 0.00 0.00 0.00 0.00 0.00 0.00 0.01 0.00 0.00 0.00 0.00 0.01 0.00 0.01 0.01 0.01 0.02 0.03 0.01 0.00 0.01 0.02 0.02 0.02 0.02 0.01 0.00 0.00 0.01 0.04 0.04 0.04 0.05 0.07
0.00 0.00 0.00 0.00 0.00 0.00 0.00 0.00 0.00 0.00 0.00 0.00 0.00 0.00 0.00 0.01 0.01 0.00 0.00 0.00 0.00 0.00 0.00 0.00 0.01 0.01 0.01 0.00 0.00 0.00 0.01 0.01 0.01 0.04 0.07 0.08 0.07 0.07 0.06 0.07 0.09 0.09 0.09
0.00 0.00 0.00 0.00 0.00 0.00 0.00 0.00 0.00 0.00 0.00 0.00 0.00 0.00 0.00 0.00 0.00 0.01 0.01 0.00 0.00 0.00 0.00 0.00 0.00 0.00 0.00 0.00 0.00 0.00 0.00 0.01 0.03 0.07 0.10 0.12 0.15 0.16 0.15 0.15 0.15 0.14 0.13

GEFSMW_prec_meanprec_030.txt.gz
QPF
0.01 0.02 0.02 0.03 0.04 0.08 0.11 0.15 0.17 0.15 0.12 0.11 0.14 0.16 0.15 0.14 0.14 0.13 0.10 0.08 0.08 0.09 0.10 0.12 0.09 0.04 0.03 0.01 0.01 0.01 0.01 0.01 0.01 0.01 0.00 0.00 0.00 0.00 0.00 0.00 0.00 0.00 0.01
0.01 0.01 0.01 0.02 0.02 0.04 0.08 0.12 0.16 0.16 0.16 0.13 0.16 0.22 0.29 0.31 0.31 0.29 0.24 0.19 0.16 0.16 0.15 0.15 0.15 0.10 0.07 0.05 0.03 0.04 0.04 0.05 0.04 0.03 0.03 0.01 0.00 0.00 0.00 0.00 0.00 0.00 0.01
0.01 0.01 0.01 0.01 0.02 0.02 0.03 0.06 0.10 0.14 0.16 0.15 0.22 0.40 0.63 0.75 0.70 0.59 0.46 0.35 0.29 0.26 0.23 0.22 0.20 0.16 0.12 0.10 0.08 0.08 0.09 0.10 0.08 0.06 0.07 0.04 0.01 0.00 0.00 0.00 0.00 0.01 0.00
0.04 0.02 0.01 0.00 0.00 0.01 0.01 0.02 0.04 0.07 0.11 0.13 0.22 0.43 0.72 0.92 0.95 0.86 0.73 0.58 0.46 0.37 0.31 0.27 0.25 0.24 0.20 0.16 0.14 0.13 0.12 0.12 0.12 0.10 0.08 0.08 0.07 0.03 0.01 0.00 0.01 0.02 0.01
0.09 0.04 0.03 0.01 0.00 0.00 0.00 0.00 0.00 0.02 0.04 0.08 0.16 0.35 0.58 0.84 1.04 1.06 0.93 0.77 0.66 0.53 0.39 0.30 0.26 0.24 0.21 0.19 0.19 0.20 0.19 0.18 0.19 0.19 0.14 0.10 0.08 0.06 0.03 0.01 0.00 0.01 0.00
0.12 0.08 0.05 0.02 0.00 0.00 0.00 0.00 0.00 0.00 0.01 0.03 0.09 0.19 0.33 0.53 0.71 0.88 0.97 0.95 0.83 0.66 0.48 0.36 0.27 0.23 0.23 0.23 0.23 0.26 0.28 0.23 0.20 0.18 0.14 0.10 0.07 0.05 0.03 0.01 0.00 0.00 0.00
0.12 0.09 0.04 0.01 0.00 0.00 0.00 0.00 0.00 0.00 0.00 0.01 0.03 0.06 0.12 0.20 0.29 0.42 0.51 0.55 0.53 0.46 0.41 0.34 0.28 0.23 0.21 0.22 0.22 0.20 0.19 0.17 0.16 0.14 0.11 0.09 0.07 0.05 0.02 0.01 0.00 0.00 0.00
0.11 0.08 0.05 0.02 0.01 0.01 0.00 0.00 0.00 0.01 0.00 0.00 0.01 0.02 0.04 0.07 0.10 0.15 0.21 0.25 0.25 0.23 0.22 0.20 0.18 0.16 0.15 0.16 0.17 0.15 0.14 0.11 0.11 0.10 0.07 0.06 0.04 0.04 0.03 0.02 0.01 0.00 0.00
0.12 0.10 0.07 0.05 0.03 0.02 0.01 0.01 0.01 0.01 0.01 0.01 0.01 0.02 0.02 0.03 0.05 0.08 0.11 0.12 0.11 0.10 0.10 0.10 0.11 0.12 0.11 0.10 0.09 0.09 0.09 0.07 0.06 0.05 0.05 0.03 0.03 0.03 0.02 0.02 0.02 0.01 0.00
0.15 0.14 0.13 0.11 0.07 0.05 0.03 0.02 0.02 0.02 0.02 0.02 0.01 0.02 0.02 0.02 0.03 0.05 0.07 0.10 0.11 0.11 0.11 0.09 0.09 0.08 0.08 0.09 0.08 0.08 0.07 0.06 0.05 0.03 0.03 0.02 0.01 0.01 0.01 0.01 0.02 0.02 0.01
0.21 0.18 0.17 0.14 0.13 0.09 0.08 0.06 0.05 0.04 0.04 0.03 0.02 0.02 0.03 0.03 0.03 0.03 0.04 0.06 0.06 0.08 0.09 0.09 0.10 0.09 0.09 0.11 0.11 0.09 0.07 0.05 0.04 0.02 0.02 0.01 0.01 0.01 0.01 0.01 0.01 0.02 0.02
0.19 0.19 0.20 0.16 0.17 0.16 0.14 0.13 0.09 0.06 0.05 0.04 0.03 0.04 0.04 0.04 0.05 0.06 0.06 0.07 0.08 0.09 0.10 0.12 0.14 0.14 0.15 0.14 0.13 0.11 0.08 0.05 0.04 0.02 0.02 0.01 0.01 0.01 0.01 0.01 0.01 0.01 0.02
0.12 0.11 0.13 0.16 0.15 0.12 0.14 0.12 0.10 0.08 0.08 0.06 0.06 0.06 0.05 0.06 0.05 0.07 0.10 0.11 0.14 0.18 0.20 0.23 0.28 0.26 0.25 0.21 0.19 0.18 0.14 0.10 0.07 0.06 0.04 0.02 0.01 0.01 0.01 0.01 0.01 0.01 0.02
0.06 0.06 0.08 0.07 0.05 0.05 0.05 0.06 0.06 0.07 0.07 0.07 0.07 0.07 0.07 0.08 0.08 0.09 0.10 0.12 0.16 0.20 0.24 0.30 0.34 0.36 0.35 0.34 0.30 0.25 0.22 0.18 0.14 0.12 0.09 0.06 0.03 0.02 0.01 0.01 0.01 0.01 0.01
0.03 0.02 0.01 0.01 0.02 0.02 0.02 0.02 0.02 0.03 0.03 0.04 0.03 0.04 0.06 0.05 0.05 0.06 0.06 0.08 0.09 0.11 0.14 0.22 0.30 0.31 0.32 0.31 0.27 0.22 0.17 0.14 0.12 0.09 0.07 0.06 0.05 0.02 0.02 0.01 0.01 0.00 0.01
0.01 0.00 0.00 0.00 0.00 0.00 0.00 0.00 0.00 0.00 0.01 0.01 0.01 0.01 0.02 0.02 0.02 0.03 0.02 0.04 0.04 0.04 0.06 0.11 0.10 0.10 0.11 0.11 0.09 0.06 0.06 0.07 0.08 0.07 0.06 0.06 0.04 0.03 0.02 0.01 0.00 0.00 0.00
0.01 0.00 0.00 0.00 0.00 0.00 0.00 0.00 0.00 0.00 0.00 0.00 0.00 0.00 0.00 0.00 0.00 0.00 0.00 0.01 0.01 0.01 0.02 0.02 0.01 0.01 0.01 0.02 0.02 0.02 0.01 0.02 0.03 0.04 0.05 0.07 0.06 0.06 0.06 0.04 0.02 0.01 0.01
0.00 0.00 0.00 0.00 0.00 0.00 0.00 0.00 0.00 0.00 0.00 0.00 0.00 0.00 0.00 0.00 0.00 0.00 0.00 0.00 0.00 0.00 0.00 0.00 0.00 0.00 0.00 0.00 0.00 0.00 0.00 0.01 0.01 0.03 0.05 0.07 0.08 0.10 0.13 0.10 0.07 0.05 0.04
0.00 0.00 0.00 0.00 0.00 0.00 0.00 0.00 0.00 0.00 0.00 0.00 0.00 0.00 0.00 0.00 0.00 0.00 0.00 0.00 0.00 0.00 0.00 0.00 0.00 0.00 0.00 0.00 0.00 0.00 0.00 0.00 0.01 0.02 0.03 0.04 0.08 0.11 0.15 0.12 0.09 0.10 0.09
0.00 0.00 0.00 0.00 0.00 0.00 0.00 0.00 0.00 0.00 0.00 0.00 0.00 0.00 0.00 0.00 0.00 0.00 0.00 0.00 0.00 0.00 0.00 0.00 0.00 0.00 0.00 0.00 0.00 0.00 0.00 0.00 0.01 0.01 0.02 0.04 0.06 0.08 0.10 0.08 0.07 0.08 0.09
0.00 0.00 0.00 0.00 0.00 0.00 0.00 0.00 0.00 0.00 0.00 0.00 0.00 0.00 0.00 0.00 0.00 0.00 0.00 0.00 0.00 0.00 0.00 0.00 0.00 0.00 0.00 0.00 0.00 0.00 0.00 0.00 0.00 0.00 0.01 0.02 0.04 0.04 0.04 0.03 0.03 0.05 0.08
0.00 0.00 0.00 0.00 0.00 0.00 0.00 0.00 0.00 0.00 0.00 0.00 0.00 0.00 0.00 0.00 0.00 0.00 0.00 0.00 0.00 0.00 0.00 0.00 0.00 0.00 0.00 0.00 0.00 0.00 0.00 0.00 0.00 0.00 0.00 0.01 0.01 0.02 0.02 0.02 0.03 0.04 0.05
0.00 0.00 0.00 0.00 0.00 0.00 0.00 0.00 0.00 0.00 0.00 0.00 0.00 0.00 0.00 0.00 0.00 0.00 0.00 0.00 0.00 0.00 0.00 0.00 0.00 0.00 0.00 0.00 0.00 0.00 0.00 0.00 0.00 0.00 0.00 0.00 0.01 0.01 0.01 0.01 0.02 0.03 0.03
0.00 0.00 0.00 0.00 0.00 0.00 0.00 0.00 0.00 0.00 0.00 0.00 0.00 0.00 0.00 0.00 0.00 0.00 0.00 0.00 0.00 0.00 0.00 0.00 0.00 0.00 0.00 0.00 0.00 0.00 0.00 0.00 0.00 0.00 0.00 0.00 0.01 0.01 0.01 0.02 0.02 0.03 0.03
0.00 0.00 0.00 0.00 0.00 0.00 0.00 0.00 0.00 0.00 0.00 0.00 0.00 0.00 0.00 0.00 0.00 0.00 0.00 0.00 0.00 0.00 0.00 0.00 0.00 0.00 0.00 0.00 0.00 0.00 0.00 0.00 0.01 0.01 0.01 0.01 0.02 0.02 0.02 0.03 0.03 0.04 0.03
0.00 0.00 0.00 0.00 0.00 0.00 0.00 0.00 0.00 0.00 0.00 0.00 0.00 0.00 0.00 0.00 0.00 0.00 0.00 0.00 0.00 0.00 0.00 0.00 0.00 0.00 0.00 0.00 0.00 0.00 0.00 0.01 0.01 0.02 0.02 0.02 0.04 0.03 0.03 0.03 0.03 0.03 0.03

GEFSMW_prec_meanprec_036.txt.gz
QPF
0.01 0.01 0.01 0.01 0.02 0.04 0.05 0.06 0.09 0.11 0.14 0.18 0.20 0.20 0.22 0.32 0.39 0.41 0.35 0.29 0.24 0.22 0.22 0.23 0.24 0.22 0.16 0.12 0.09 0.05 0.02 0.01 0.00 0.00 0.00 0.00 0.00 0.00 0.00 0.00 0.00 0.00 0.00
0.01 0.01 0.01 0.01 0.01 0.01 0.02 0.03 0.04 0.05 0.07 0.11 0.14 0.18 0.25 0.33 0.40 0.48 0.42 0.37 0.36 0.34 0.34 0.34 0.35 0.32 0.28 0.23 0.17 0.10 0.06 0.03 0.02 0.02 0.02 0.01 0.01 0.01 0.00 0.00 0.00 0.00 0.00
0.02 0.01 0.00 0.00 0.01 0.01 0.01 0.01 0.02 0.03 0.04 0.06 0.09 0.14 0.18 0.23 0.28 0.34 0.41 0.47 0.47 0.43 0.39 0.38 0.42 0.41 0.38 0.32 0.27 0.21 0.15 0.10 0.08 0.06 0.06 0.03 0.01 0.02 0.01 0.00 0.00 0.00 0.00
0.02 0.01 0.00 0.01 0.01 0.00 0.00 0.01 0.01 0.01 0.01 0.02 0.04 0.05 0.08 0.14 0.20 0.29 0.41 0.50 0.48 0.44 0.43 0.43 0.45 0.44 0.42 0.40 0.35 0.29 0.24 0.18 0.14 0.13 0.11 0.07 0.04 0.03 0.01 0.00 0.00 0.00 0.00
0.04 0.02 0.01 0.01 0.01 0.01 0.00 0.00 0.00 0.00 0.00 0.00 0.01 0.02 0.04 0.08 0.12 0.18 0.26 0.33 0.36 0.39 0.41 0.42 0.42 0.43 0.43 0.42 0.41 0.37 0.33 0.27 0.23 0.20 0.18 0.14 0.10 0.06 0.04 0.02 0.01 0.01 0.00
0.07 0.05 0.04 0.04 0.03 0.02 0.01 0.00 0.00 0.00 0.00 0.00 0.00 0.01 0.02 0.03 0.06 0.09 0.14 0.20 0.23 0.28 0.32 0.33 0.35 0.36 0.35 0.35 0.37 0.36 0.34 0.33 0.30 0.26 0.22 0.18 0.14 0.11 0.08 0.05 0.03 0.01 0.01
0.09 0.09 0.09 0.07 0.07 0.03 0.02 0.01 0.00 0.00 0.00 0.00 0.00 0.00 0.01 0.02 0.03 0.06 0.08 0.10 0.13 0.16 0.17 0.17 0.18 0.22 0.24 0.28 0.31 0.32 0.30 0.29 0.27 0.24 0.21 0.18 0.15 0.11 0.08 0.06 0.04 0.02 0.01
0.12 0.11 0.13 0.12 0.08 0.05 0.04 0.02 0.01 0.01 0.01 0.00 0.01 0.01 0.01 0.01 0.02 0.03 0.05 0.06 0.06 0.07 0.09 0.10 0.12 0.14 0.16 0.18 0.22 0.24 0.24 0.22 0.21 0.20 0.18 0.17 0.15 0.13 0.09 0.06 0.04 0.02 0.01
0.16 0.20 0.18 0.11 0.09 0.09 0.09 0.06 0.04 0.03 0.02 0.01 0.02 0.02 0.02 0.01 0.01 0.02 0.02 0.03 0.04 0.05 0.07 0.08 0.10 0.12 0.12 0.12 0.12 0.13 0.13 0.14 0.15 0.16 0.16 0.16 0.14 0.12 0.10 0.08 0.05 0.03 0.02
0.12 0.17 0.15 0.13 0.15 0.16 0.16 0.13 0.10 0.08 0.06 0.03 0.02 0.02 0.01 0.01 0.01 0.02 0.02 0.02 0.03 0.05 0.06 0.07 0.07 0.07 0.07 0.07 0.08 0.08 0.09 0.09 0.09 0.09 0.10 0.10 0.08 0.07 0.06 0.05 0.04 0.03 0.01
0.09 0.11 0.12 0.16 0.14 0.13 0.13 0.12 0.09 0.09 0.08 0.05 0.04 0.05 0.05 0.02 0.02 0.02 0.01 0.01 0.02 0.03 0.04 0.06 0.06 0.06 0.06 0.06 0.06 0.06 0.07 0.07 0.06 0.06 0.06 0.05 0.05 0.04 0.04 0.03 0.02 0.02 0.01
0.05 0.07 0.08 0.10 0.08 0.07 0.07 0.07 0.08 0.08 0.08 0.06 0.05 0.05 0.04 0.03 0.02 0.02 0.01 0.01 0.01 0.02 0.03 0.04 0.05 0.06 0.08 0.09 0.08 0.07 0.07 0.07 0.07 0.06 0.06 0.05 0.05 0.04 0.03 0.02 0.01 0.01 0.01
0.02 0.03 0.05 0.08 0.06 0.06 0.05 0.04 0.04 0.04 0.05 0.06 0.05 0.05 0.04 0.03 0.03 0.03 0.03 0.03 0.03 0.02 0.02 0.04 0.05 0.06 0.07 0.09 0.11 0.09 0.08 0.09 0.08 0.08 0.08 0.07 0.06 0.04 0.03 0.01 0.01 0.00 0.00
0.01 0.01 0.02 0.03 0.03 0.03 0.02 0.01 0.01 0.02 0.02 0.03 0.03 0.04 0.05 0.04 0.04 0.04 0.03 0.02 0.02 0.02 0.02 0.03 0.05 0.07 0.09 0.09 0.09 0.10 0.10 0.09 0.10 0.08 0.07 0.07 0.06 0.05 0.03 0.02 0.01 0.00 0.00
0.01 0.01 0.00 0.00 0.00 0.00 0.00 0.00 0.00 0.00 0.00 0.00 0.01 0.01 0.02 0.02 0.02 0.02 0.02 0.02 0.02 0.02 0.02 0.02 0.03 0.05 0.06 0.07 0.08 0.07 0.07 0.08 0.08 0.07 0.07 0.07 0.06 0.04 0.04 0.02 0.01 0.00 0.00
0.01 0.00 0.00 0.00 0.00 0.00 0.00 0.00 0.00 0.00 0.00 0.00 0.00 0.00 0.00 0.00 0.00 0.00 0.00 0.00 0.01 0.01 0.01 0.02 0.01 0.02 0.02 0.03 0.04 0.04 0.04 0.04 0.03 0.05 0.06 0.07 0.05 0.03 0.02 0.01 0.01 0.01 0.00
0.00 0.00 0.00 0.00 0.00 0.00 0.00 0.00 0.00 0.00 0.00 0.00 0.00 0.00 0.00 0.00 0.00 0.00 0.00 0.00 0.00 0.00 0.00 0.00 0.00 0.00 0.00 0.00 0.01 0.02 0.03 0.02 0.02 0.04 0.06 0.06 0.04 0.05 0.04 0.02 0.01 0.01 0.01
0.00 0.00 0.00 0.00 0.00 0.00 0.00 0.00 0.00 0.00 0.00 0.00 0.00 0.00 0.00 0.00 0.00 0.00 0.00 0.00 0.00 0.00 0.00 0.00 0.00 0.00 0.00 0.00 0.00 0.01 0.01 0.01 0.01 0.03 0.04 0.04 0.04 0.04 0.04 0.02 0.02 0.01 0.01
0.00 0.00 0.00 0.00 0.00 0.00 0.00 0.00 0.00 0.00 0.00 0.00 0.00 0.00 0.00 0.00 0.00 0.00 0.00 0.00 0.00 0.00 0.00 0.00 0.00 0.00 0.00 0.00 0.00 0.00 0.01 0.01 0.01 0.01 0.02 0.02 0.03 0.03 0.04 0.03 0.03 0.02 0.01
0.00 0.00 0.00 0.00 0.00 0.00 0.00 0.00 0.00 0.00 0.00 0.00 0.00 0.00 0.00 0.00 0.00 0.00 0.00 0.00 0.00 0.00 0.00 0.00 0.00 0.00 0.00 0.00 0.00 0.00 0.00 0.01 0.01 0.01 0.01 0.02 0.03 0.04 0.04 0.03 0.03 0.02 0.02
0.00 0.00 0.00 0.00 0.00 0.00 0.00 0.00 0.00 0.00 0.00 0.00 0.00 0.00 0.00 0.00 0.00 0.00 0.00 0.00 0.00 0.00 0.00 0.00 0.00 0.00 0.00 0.00 0.00 0.00 0.00 0.00 0.00 0.01 0.01 0.01 0.02 0.03 0.03 0.05 0.04 0.05 0.04
0.00 0.00 0.00 0.00 0.00 0.00 0.00 0.00 0.00 0.00 0.00 0.00 0.00 0.00 0.00 0.00 0.00 0.00 0.00 0.00 0.00 0.00 0.00 0.00 0.00 0.00 0.00 0.00 0.00 0.00 0.00 0.00 0.01 0.01 0.01 0.01 0.02 0.03 0.03 0.04 0.06 0.05 0.04
0.00 0.00 0.00 0.00 0.00 0.00 0.00 0.00 0.00 0.00 0.00 0.00 0.00 0.00 0.00 0.00 0.00 0.00 0.00 0.00 0.00 0.00 0.00 0.00 0.00 0.00 0.00 0.00 0.00 0.00 0.01 0.01 0.01 0.02 0.01 0.02 0.03 0.02 0.03 0.04 0.06 0.05 0.02
0.00 0.00 0.00 0.00 0.00 0.00 0.00 0.00 0.00 0.00 0.00 0.00 0.00 0.00 0.00 0.00 0.00 0.00 0.00 0.00 0.00 0.00 0.00 0.00 0.00 0.00 0.00 0.00 0.00 0.00 0.00 0.00 0.01 0.01 0.02 0.02 0.03 0.02 0.02 0.03 0.04 0.04 0.03
0.00 0.00 0.00 0.00 0.00 0.00 0.00 0.00 0.00 0.00 0.00 0.00 0.00 0.00 0.00 0.00 0.00 0.00 0.00 0.00 0.00 0.00 0.00 0.00 0.00 0.00 0.00 0.00 0.00 0.00 0.00 0.00 0.00 0.01 0.01 0.02 0.01 0.01 0.02 0.02 0.03 0.03 0.03
0.00 0.00 0.00 0.00 0.00 0.00 0.00 0.00 0.00 0.00 0.00 0.00 0.00 0.00 0.00 0.00 0.00 0.00 0.00 0.00 0.00 0.00 0.00 0.00 0.00 0.00 0.00 0.00 0.00 0.00 0.00 0.01 0.01 0.01 0.01 0.01 0.01 0.01 0.02 0.02 0.02 0.02 0.02